Flag for Poland Weather past 2 weeks in Rzeszów, Poland

Now
45 °F

Light rain. Fog.


Feels Like: 40 °F
Forecast: 33 / 42 °F
Wind: 9 mph from West

Location: Rzeszow-Jasionka

Current Time: Oct 23, 2014 at 2:08:26 AM

Latest Report: Oct 23, 2014 at 1:30 AM


Visibility: 1 mi

Pressure: 29.68 "Hg

Humidity: 100%

Dew point: 45 °F

Location of RzeszówLocation

Historic Weather in Rzeszów — Graph

°F

Rzeszów temperature yesterday

Maximum temperature yesterday: 52 °F (at 11:00 AM)
Minimum temperature yesterday: 45 °F (at 1:00 AM)
Average temperature yesterday: 47 °F

Past Weeks' High & Low Weather Summary

 TemperatureHumidityPressure
High75 °F (Oct 11, 2:00 PM)100% (Oct 8, 5:30 AM)30.36 "Hg (Oct 8, 5:30 AM)
Low39 °F (Oct 19, 6:30 AM)53% (Oct 9, 3:00 PM)29.56 "Hg (Oct 22, 6:30 AM)
Average57 °F86%29.95 "Hg
* Reported Oct 8 1:00 AM — Oct 23 1:00 AM, Rzeszów, Weather by CustomWeather, © 2014

Note: Actual official high and low records may vary slightly from our data, if they occured in-between our weather recording intervals... More about our weather records

Advertising

Rzeszów weather history for previous 24 hours

 ConditionsComfort  
Time TempWeatherWind HumidityBarometerVisibility
1:00 AM
Oct 23
46 °FLight rain. Fog.8 mph93%29.65 "Hg1 mi
12:30 AM46 °FLight rain. Fog.8 mph100%29.65 "Hg1 mi
12:00 AM46 °FLight rain. Fog.2 mph100%29.62 "Hg2 mi
11:30 PM
Oct 22
46 °FLight rain. Low clouds.5 mph100%29.62 "Hg4 mi
11:00 PM46 °FLight rain. Low clouds.3 mph100%29.62 "Hg4 mi
10:30 PM46 °FLight rain. Low clouds.7 mph100%29.62 "HgN/A
10:00 PM46 °FLight rain. Low clouds.2 mph100%29.62 "HgN/A
9:30 PM46 °FLight rain. Mostly cloudy.5 mph100%29.59 "HgN/A
9:00 PM46 °FLight rain. Mostly cloudy.3 mph100%29.59 "HgN/A
8:30 PM46 °FLight rain. Mostly cloudy.6 mph100%29.59 "HgN/A
8:00 PM46 °FLight rain. Mostly cloudy.6 mph100%29.59 "HgN/A
7:30 PM46 °FLight rain. Mostly cloudy.5 mph100%29.59 "HgN/A
7:00 PM48 °FLight rain. Mostly cloudy.6 mph94%29.59 "HgN/A
6:30 PM48 °FLight rain. Mostly cloudy.3 mph94%29.59 "HgN/A
6:00 PM48 °FLight rain. Mostly cloudy.5 mph94%29.56 "Hg5 mi
5:30 PM48 °FLight rain. Mostly cloudy.6 mph94%29.56 "Hg5 mi
5:00 PM48 °FLight rain. Mostly cloudy.7 mph94%29.56 "HgN/A
4:30 PM48 °FLight rain. More clouds than sun.9 mph100%29.56 "Hg5 mi
4:00 PM48 °FLight rain. Cloudy.5 mph100%29.56 "HgN/A
3:30 PM48 °FLight rain. Broken clouds.6 mph100%29.56 "HgN/A
3:00 PM48 °FLight rain. Broken clouds.8 mph100%29.56 "Hg5 mi
2:30 PM48 °FLight rain. Cloudy.10 mph100%29.56 "Hg5 mi
2:00 PM50 °FLight rain. Fog.10 mph94%29.56 "Hg2 mi
1:30 PM52 °FLight rain. Cloudy.10 mph94%29.56 "Hg4 mi
1:00 PM52 °FLight rain. Fog.7 mph94%29.56 "Hg3 mi
12:30 PM52 °FLight rain. Fog.No wind94%29.56 "Hg3 mi
12:00 PM52 °FMore clouds than sun.No wind94%29.56 "HgN/A
11:30 AM52 °FPartly sunny.No wind94%29.59 "HgN/A
11:00 AM52 °FPartly sunny.5 mph94%29.59 "HgN/A
10:30 AM50 °FScattered clouds.7 mph100%29.59 "HgN/A
10:00 AM50 °FSunny.8 mph100%29.59 "Hg10 mi
9:30 AM48 °FSunny.7 mph100%29.59 "Hg10 mi
9:00 AM48 °FSunny.8 mph100%29.59 "Hg10 mi
8:30 AM46 °FSunny.7 mph100%29.59 "Hg10 mi
8:00 AM46 °FClear.6 mph100%29.56 "Hg10 mi
7:30 AM46 °FClear.5 mph100%29.59 "Hg10 mi
7:00 AM45 °FClear.6 mph100%29.56 "Hg10 mi
6:30 AM45 °FClear.6 mph100%29.56 "Hg10 mi
6:00 AM46 °FClear.5 mph100%29.59 "Hg10 mi
5:30 AM45 °FClear.6 mph100%29.59 "Hg10 mi
5:00 AM45 °FClear.5 mph100%29.59 "Hg10 mi
4:30 AM46 °FClear.6 mph100%29.59 "Hg10 mi
4:00 AM45 °FClear.5 mph100%29.59 "Hg10 mi
3:30 AM46 °FClear.5 mph100%29.62 "Hg10 mi
3:00 AM45 °FClear.5 mph100%29.62 "Hg10 mi
2:30 AM45 °FFog.5 mph93%29.62 "HgN/A
2:00 AM45 °FFog.7 mph93%29.65 "HgN/A
Weather by CustomWeather, © 2014

See weather overviewHow to use our weather pages